Weather in Sunshine Coast

Australia     26°36′05″S   153°05′32″E
temp.,
°C
wind,
m/s
gust,
m/s
humid.,
%
clouds,
%
prec.,
mm/h
press.,
hPa
HPBL,
m
6 march, sat
sat601:00+18wsw11897 0.0 100627
04:00+18sw118913 0.0 100629
07:00+20ssw268432 0.1 1008265
10:00+24se467834 0.9 1009946
13:00+24se357914 2.8 10081022
16:00+24ese356432 2.9 10091099
19:00+21ese258051 0.1 1011247
22:00+20se268530 0.1 1013315
7 march, sun
sun701:00+20ese248872 0.3 1012177
04:00+19ese129486 0.9 101373
07:00+20se119297 0.1 101561
10:00+25e236089 0.5 10161094
13:00+26ene345769 0.1 10141133
16:00+25ene345867 0.1 10131015
19:00+20ene12782 0.0 101566
22:00+22ene137349 0.0 1017209
8 march, mon
mon801:00+22ne1475100 0.0 1016249
04:00+21ne117798 0.1 101660
07:00+22ne027433 0.0 1018255
10:00+26ene225234 0.0 10181323
13:00+27ene33499 0.0 10161162
16:00+26ne35544 0.0 1014809
19:00+21ne24730 0.0 1016139
22:00+20nnw12810 0.0 101781
9 march, tue
tue901:00+18w11870 0.0 101749
04:00+17w11900 0.0 101629
07:00+20w11750 0.0 101788
10:00+28nne22470 0.0 10171223
13:00+29ne33480 0.0 10151102
16:00+26ne35590 0.0 1013633
19:00+21n128029 0.1 101561
22:00+21nnw128359 0.2 101699
10 march, wed
wed1001:00+19w12924 0.0 101653
04:00+18w11932 0.0 101634
07:00+21w11800 0.0 101877
10:00+30ne11450 0.0 10181121
13:00+29ene435118 0.0 1016900
16:00+27ene345915 0.0 1015808
19:00+22ne247714 0.0 1017141
22:00+21ne01857 0.0 101847